Coral Leaf — PHNI — position and weather

sailwx.info

Track history (hours):
 
Tides and Currents Weather Stations Pressure Air Temp Water Temp Dewpoint Dewpoint Depression Visibility Wind Speed Wind Dir Waves Ship Positions

Coral Leaf

Last reported at 2014-Jul-25 07:28 UTC. Time now 2014-Jul-25 11:27 UTC.
Position N 53°39' E 009°31'.

Length 108 m; draft 6.7 m.

Type: Ship (hazmat cat D). MMSI: 244036000.

Date/timePositionNaut miles runAvg speedWind from/ knotsBaromVisibWave heightAir tempDewpointWater temp
2014-Jul-25 07:28N 53°39' E 009°31'4 4.5
2014-Jul-25 06:33N 53°43' E 009°28'1111.3
2014-Jul-25 05:33N 53°52' E 009°17'1010.3
2014-Jul-25 04:34N 53°51' E 008°59'9 9.3
2014-Jul-25 03:33N 53°52' E 008°44'10 9.9
2014-Jul-25 02:33N 53°58' E 008°31'1211.5
2014-Jul-25 01:33N 53°60' E 008°11'4 4.3
2014-Jul-25 00:33N 54°03' E 008°06'2 2.1
2014-Jul-24 23:28N 54°03' E 008°10'0 0.0
2014-Jul-24 22:31N 54°03' E 008°10'0 0.1
2014-Jul-24 21:31N 54°03' E 008°10'0 0.1
2014-Jul-24 20:31N 54°03' E 008°10'0 0.0
2014-Jul-24 19:31N 54°03' E 008°10'0 0.1
2014-Jul-24 18:33N 54°03' E 008°10'0 0.1
2014-Jul-24 17:33N 54°03' E 008°10'0 0.0
2014-Jul-24 16:30N 54°03' E 008°10'0 0.0
2014-Jul-24 15:33N 54°03' E 008°10'0 0.0
2014-Jul-24 14:33N 54°03' E 008°10'0 0.0
2014-Jul-24 13:33N 54°03' E 008°10'0 0.0
2014-Jul-24 12:33N 54°03' E 008°10'0 0.0
2014-Jul-24 11:33N 54°03' E 008°10'0 0.0
2014-Jul-24 10:33N 54°03' E 008°10'0 0.1
2014-Jul-24 09:12N 54°03' E 008°10'0 0.0
2014-Jul-24 08:33N 54°03' E 008°10'0 0.0
2014-Jul-24 07:27N 54°03' E 008°10'0 0.1
2014-Jul-24 06:30N 54°03' E 008°10'0 0.0
2014-Jul-24 05:33N 54°03' E 008°10'0 0.1
2014-Jul-24 04:33N 54°03' E 008°10'0 0.0
2014-Jul-24 03:33N 54°03' E 008°10'0 0.0
2014-Jul-24 02:32N 54°03' E 008°10'0 0.0
2014-Jul-24 01:32N 54°03' E 008°10'0 0.0
2014-Jul-24 00:32N 54°03' E 008°10'0 0.0
2014-Jul-23 23:32N 54°03' E 008°10'0 0.0
2014-Jul-23 22:32N 54°03' E 008°10'0 0.0
2014-Jul-23 21:32N 54°03' E 008°10'1 1.1
2014-Jul-23 20:34N 54°03' E 008°08'1211.8
2014-Jul-23 19:33N 54°05' E 007°49'1414.0
2014-Jul-23 18:33N 54°09' E 007°26'3114.4
2014-Jul-23 16:25N 54°08' E 006°33'1213.9
2014-Jul-23 15:34N 54°08' E 006°13'1413.5
2014-Jul-23 14:31N 54°06' E 005°49'1313.1
2014-Jul-23 13:34N 54°04' E 005°28'1312.9
2014-Jul-23 12:34N 54°02' E 005°06'1312.5
2014-Jul-23 11:33N 54°03' E 004°45'1312.8
2014-Jul-23 10:32N 54°09' E 004°25'1412.9
2014-Jul-23 09:29N 54°14' E 004°03'1212.5
2014-Jul-23 08:33N 54°18' E 003°45'1413.7
2014-Jul-23 07:33N 54°23' E 003°22'2013.9
2014-Jul-23 06:06N 54°30' E 002°50'1314.0
2014-Jul-23 05:09N 54°32' E 002°28'914.1
2014-Jul-23 04:32N 54°32' E 002°13'2814.2
2014-Jul-23 02:33N 54°35' E 001°25'1814.2
2014-Jul-23 01:16N 54°37' E 000°53'1714.1
2014-Jul-23 00:04N 54°38' E 000°24'714.0
2014-Jul-22 23:33N 54°38' E 000°12'1414.1
2014-Jul-22 22:33N 54°39' W 000°12'1413.7
2014-Jul-22 21:33N 54°40' W 000°36'1412.7
2014-Jul-22 20:28N 54°41' W 001°00'8 1.3
2014-Jul-22 14:24N 54°36' W 001°11'0 0.0
2014-Jul-22 10:12N 54°36' W 001°11'0 0.0
2014-Jul-22 09:24N 54°36' W 001°11'0 0.0
2014-Jul-22 08:24N 54°36' W 001°11'0 0.0
2014-Jul-22 05:18N 54°36' W 001°11'0 0.0
2014-Jul-21 16:12N 54°36' W 001°11'0 0.0
2014-Jul-21 13:33N 54°36' W 001°11'1 0.3
2014-Jul-21 11:33N 54°36' W 001°10'7 6.3
2014-Jul-21 10:29N 54°41' W 001°03'0 0.1
2014-Jul-21 09:32N 54°41' W 001°03'0 0.0
2014-Jul-21 08:29N 54°41' W 001°03'0 0.0
2014-Jul-21 07:29N 54°41' W 001°03'0 0.0
2014-Jul-21 06:25N 54°41' W 001°03'0 0.1
2014-Jul-21 05:29N 54°41' W 001°03'0 0.1
2014-Jul-21 04:32N 54°41' W 001°03'0 0.0
2014-Jul-21 03:32N 54°41' W 001°03'0 0.0
2014-Jul-21 02:32N 54°41' W 001°03'0 0.1
2014-Jul-21 01:32N 54°41' W 001°03'0 0.0
2014-Jul-21 00:29N 54°41' W 001°03'0 0.0
2014-Jul-20 23:31N 54°41' W 001°03'0 0.0
2014-Jul-20 22:31N 54°41' W 001°03'0 0.0
2014-Jul-20 21:32N 54°41' W 001°03'0 0.0
2014-Jul-20 20:32N 54°41' W 001°03'0 0.0
2014-Jul-20 19:32N 54°41' W 001°03'0 0.0
2014-Jul-20 18:32N 54°41' W 001°03'0 0.0
2014-Jul-20 16:20N 54°41' W 001°03'0 0.0
2014-Jul-20 15:25N 54°41' W 001°03'0 0.0
2014-Jul-20 14:22N 54°41' W 001°03'0 0.0
2014-Jul-20 13:13N 54°41' W 001°03'0 0.1
2014-Jul-20 12:31N 54°41' W 001°03'0 0.0
2014-Jul-20 11:25N 54°41' W 001°03'0 0.0
2014-Jul-20 10:32N 54°41' W 001°03'0 0.0
2014-Jul-20 09:32N 54°41' W 001°03'0 0.0
2014-Jul-20 08:29N 54°41' W 001°03'7 7.2
2014-Jul-20 07:33N 54°44' W 000°52'1111.6
2014-Jul-20 06:34N 54°48' W 000°34'1211.5
2014-Jul-20 05:33N 54°53' W 000°15'1211.6
2014-Jul-20 04:33N 54°58' E 000°03'1211.8
2014-Jul-20 03:33N 55°02' E 000°22'1211.7
2014-Jul-20 02:34N 55°07' E 000°40'1111.0
2014-Jul-20 01:33N 55°11' E 000°58'1510.4
2014-Jul-20 00:05N 55°17' E 001°23'27611.1
2014-Jul-18 23:12N 57°25' E 008°45'811.5
2014-Jul-18 22:28N 57°29' E 008°58'2811.7
2014-Jul-18 20:07N 57°43' E 009°43'1011.5
2014-Jul-18 19:17N 57°47' E 009°59'811.5
2014-Jul-18 18:33N 57°48' E 010°14'1010.5
2014-Jul-18 17:33N 57°48' E 010°34'8 8.0
2014-Jul-18 16:34N 57°43' E 010°45'3 1.5
2014-Jul-18 14:31N 57°41' E 010°41'0 0.0
2014-Jul-18 13:31N 57°41' E 010°41'0 0.0
2014-Jul-18 11:19N 57°41' E 010°41'0 0.0
2014-Jul-18 10:31N 57°41' E 010°41'0 0.0
2014-Jul-18 08:22N 57°41' E 010°41'0 0.0
2014-Jul-18 07:33N 57°41' E 010°41'6 5.7
2014-Jul-18 06:33N 57°41' E 010°52'1414.3
2014-Jul-18 05:33N 57°48' E 011°16'1312.7
2014-Jul-18 04:34N 57°55' E 011°35'10 9.5
2014-Jul-18 03:32N 58°02' E 011°47'3 2.5
2014-Jul-18 02:13N 58°05' E 011°49'0 0.0
2014-Jul-17 05:33N 58°05' E 011°49'4 4.5
2014-Jul-17 04:33N 58°01' E 011°47'1010.0
2014-Jul-17 03:33N 57°54' E 011°33'9 9.2
2014-Jul-17 02:33N 57°54' E 011°15'2 1.6
2014-Jul-17 01:33N 57°53' E 011°13'2 1.6
2014-Jul-17 00:33N 57°52' E 011°10'1110.7
2014-Jul-16 23:34N 57°52' E 010°50'1615.5
2014-Jul-16 22:33N 57°52' E 010°21'42224.2
2014-Jul-16 05:06N 54°42' W 000°58'59 7.8
2014-Jul-15 21:33N 55°06' E 000°36'1514.9
2014-Jul-15 20:33N 54°60' E 000°13'1614.9
2014-Jul-15 19:29N 54°54' W 000°13'1415.0
2014-Jul-15 18:33N 54°48' W 000°35'1614.8
2014-Jul-15 17:28N 54°41' W 001°01'8 2.6
2014-Jul-15 14:20N 54°36' W 001°11'0 0.0
2014-Jul-15 09:23N 54°36' W 001°11'  
Track history (hours):
 
Tides and Currents Weather Stations Pressure Air Temp Water Temp Dewpoint Dewpoint Depression Visibility Wind Speed Wind Dir Waves Ship Positions

Coral Leaf

Last reported at 2014-Jul-25 07:28 UTC. Time now 2014-Jul-25 11:27 UTC.
Position N 53°39' E 009°31'.

Length 108 m; draft 6.7 m.

Type: Ship (hazmat cat D). MMSI: 244036000.

Date/timePositionNaut miles runAvg speedWind from/ knotsBaromVisibWave heightAir tempDewpointWater temp
2014-Jul-25 07:28N 53°39' E 009°31'4 4.5
2014-Jul-25 06:33N 53°43' E 009°28'1111.3
2014-Jul-25 05:33N 53°52' E 009°17'1010.3
2014-Jul-25 04:34N 53°51' E 008°59'9 9.3
2014-Jul-25 03:33N 53°52' E 008°44'10 9.9
2014-Jul-25 02:33N 53°58' E 008°31'1211.5
2014-Jul-25 01:33N 53°60' E 008°11'4 4.3
2014-Jul-25 00:33N 54°03' E 008°06'2 2.1
2014-Jul-24 23:28N 54°03' E 008°10'0 0.0
2014-Jul-24 22:31N 54°03' E 008°10'0 0.1
2014-Jul-24 21:31N 54°03' E 008°10'0 0.1
2014-Jul-24 20:31N 54°03' E 008°10'0 0.0
2014-Jul-24 19:31N 54°03' E 008°10'0 0.1
2014-Jul-24 18:33N 54°03' E 008°10'0 0.1
2014-Jul-24 17:33N 54°03' E 008°10'0 0.0
2014-Jul-24 16:30N 54°03' E 008°10'0 0.0
2014-Jul-24 15:33N 54°03' E 008°10'0 0.0
2014-Jul-24 14:33N 54°03' E 008°10'0 0.0
2014-Jul-24 13:33N 54°03' E 008°10'0 0.0
2014-Jul-24 12:33N 54°03' E 008°10'0 0.0
2014-Jul-24 11:33N 54°03' E 008°10'0 0.0
2014-Jul-24 10:33N 54°03' E 008°10'0 0.1
2014-Jul-24 09:12N 54°03' E 008°10'0 0.0
2014-Jul-24 08:33N 54°03' E 008°10'0 0.0
2014-Jul-24 07:27N 54°03' E 008°10'0 0.1
2014-Jul-24 06:30N 54°03' E 008°10'0 0.0
2014-Jul-24 05:33N 54°03' E 008°10'0 0.1
2014-Jul-24 04:33N 54°03' E 008°10'0 0.0
2014-Jul-24 03:33N 54°03' E 008°10'0 0.0
2014-Jul-24 02:32N 54°03' E 008°10'0 0.0
2014-Jul-24 01:32N 54°03' E 008°10'0 0.0
2014-Jul-24 00:32N 54°03' E 008°10'0 0.0
2014-Jul-23 23:32N 54°03' E 008°10'0 0.0
2014-Jul-23 22:32N 54°03' E 008°10'0 0.0
2014-Jul-23 21:32N 54°03' E 008°10'1 1.1
2014-Jul-23 20:34N 54°03' E 008°08'1211.8
2014-Jul-23 19:33N 54°05' E 007°49'1414.0
2014-Jul-23 18:33N 54°09' E 007°26'3114.4
2014-Jul-23 16:25N 54°08' E 006°33'1213.9
2014-Jul-23 15:34N 54°08' E 006°13'1413.5
2014-Jul-23 14:31N 54°06' E 005°49'1313.1
2014-Jul-23 13:34N 54°04' E 005°28'1312.9
2014-Jul-23 12:34N 54°02' E 005°06'1312.5
2014-Jul-23 11:33N 54°03' E 004°45'1312.8
2014-Jul-23 10:32N 54°09' E 004°25'1412.9
2014-Jul-23 09:29N 54°14' E 004°03'1212.5
2014-Jul-23 08:33N 54°18' E 003°45'1413.7
2014-Jul-23 07:33N 54°23' E 003°22'2013.9
2014-Jul-23 06:06N 54°30' E 002°50'1314.0
2014-Jul-23 05:09N 54°32' E 002°28'914.1
2014-Jul-23 04:32N 54°32' E 002°13'2814.2
2014-Jul-23 02:33N 54°35' E 001°25'1814.2
2014-Jul-23 01:16N 54°37' E 000°53'1714.1
2014-Jul-23 00:04N 54°38' E 000°24'714.0
2014-Jul-22 23:33N 54°38' E 000°12'1414.1
2014-Jul-22 22:33N 54°39' W 000°12'1413.7
2014-Jul-22 21:33N 54°40' W 000°36'1412.7
2014-Jul-22 20:28N 54°41' W 001°00'8 1.3
2014-Jul-22 14:24N 54°36' W 001°11'0 0.0
2014-Jul-22 10:12N 54°36' W 001°11'0 0.0
2014-Jul-22 09:24N 54°36' W 001°11'0 0.0
2014-Jul-22 08:24N 54°36' W 001°11'0 0.0
2014-Jul-22 05:18N 54°36' W 001°11'0 0.0
2014-Jul-21 16:12N 54°36' W 001°11'0 0.0
2014-Jul-21 13:33N 54°36' W 001°11'1 0.3
2014-Jul-21 11:33N 54°36' W 001°10'7 6.3
2014-Jul-21 10:29N 54°41' W 001°03'0 0.1
2014-Jul-21 09:32N 54°41' W 001°03'0 0.0
2014-Jul-21 08:29N 54°41' W 001°03'0 0.0
2014-Jul-21 07:29N 54°41' W 001°03'0 0.0
2014-Jul-21 06:25N 54°41' W 001°03'0 0.1
2014-Jul-21 05:29N 54°41' W 001°03'0 0.1
2014-Jul-21 04:32N 54°41' W 001°03'0 0.0
2014-Jul-21 03:32N 54°41' W 001°03'0 0.0
2014-Jul-21 02:32N 54°41' W 001°03'0 0.1
2014-Jul-21 01:32N 54°41' W 001°03'0 0.0
2014-Jul-21 00:29N 54°41' W 001°03'0 0.0
2014-Jul-20 23:31N 54°41' W 001°03'0 0.0
2014-Jul-20 22:31N 54°41' W 001°03'0 0.0
2014-Jul-20 21:32N 54°41' W 001°03'0 0.0
2014-Jul-20 20:32N 54°41' W 001°03'0 0.0
2014-Jul-20 19:32N 54°41' W 001°03'0 0.0
2014-Jul-20 18:32N 54°41' W 001°03'0 0.0
2014-Jul-20 16:20N 54°41' W 001°03'0 0.0
2014-Jul-20 15:25N 54°41' W 001°03'0 0.0
2014-Jul-20 14:22N 54°41' W 001°03'0 0.0
2014-Jul-20 13:13N 54°41' W 001°03'0 0.1
2014-Jul-20 12:31N 54°41' W 001°03'0 0.0
2014-Jul-20 11:25N 54°41' W 001°03'0 0.0
2014-Jul-20 10:32N 54°41' W 001°03'0 0.0
2014-Jul-20 09:32N 54°41' W 001°03'0 0.0
2014-Jul-20 08:29N 54°41' W 001°03'7 7.2
2014-Jul-20 07:33N 54°44' W 000°52'1111.6
2014-Jul-20 06:34N 54°48' W 000°34'1211.5
2014-Jul-20 05:33N 54°53' W 000°15'1211.6
2014-Jul-20 04:33N 54°58' E 000°03'1211.8
2014-Jul-20 03:33N 55°02' E 000°22'1211.7
2014-Jul-20 02:34N 55°07' E 000°40'1111.0
2014-Jul-20 01:33N 55°11' E 000°58'1510.4
2014-Jul-20 00:05N 55°17' E 001°23'27611.1
2014-Jul-18 23:12N 57°25' E 008°45'811.5
2014-Jul-18 22:28N 57°29' E 008°58'2811.7
2014-Jul-18 20:07N 57°43' E 009°43'1011.5
2014-Jul-18 19:17N 57°47' E 009°59'811.5
2014-Jul-18 18:33N 57°48' E 010°14'1010.5
2014-Jul-18 17:33N 57°48' E 010°34'8 8.0
2014-Jul-18 16:34N 57°43' E 010°45'3 1.5
2014-Jul-18 14:31N 57°41' E 010°41'0 0.0
2014-Jul-18 13:31N 57°41' E 010°41'0 0.0
2014-Jul-18 11:19N 57°41' E 010°41'0 0.0
2014-Jul-18 10:31N 57°41' E 010°41'0 0.0
2014-Jul-18 08:22N 57°41' E 010°41'0 0.0
2014-Jul-18 07:33N 57°41' E 010°41'6 5.7
2014-Jul-18 06:33N 57°41' E 010°52'1414.3
2014-Jul-18 05:33N 57°48' E 011°16'1312.7
2014-Jul-18 04:34N 57°55' E 011°35'10 9.5
2014-Jul-18 03:32N 58°02' E 011°47'3 2.5
2014-Jul-18 02:13N 58°05' E 011°49'0 0.0
2014-Jul-17 05:33N 58°05' E 011°49'4 4.5
2014-Jul-17 04:33N 58°01' E 011°47'1010.0
2014-Jul-17 03:33N 57°54' E 011°33'9 9.2
2014-Jul-17 02:33N 57°54' E 011°15'2 1.6
2014-Jul-17 01:33N 57°53' E 011°13'2 1.6
2014-Jul-17 00:33N 57°52' E 011°10'1110.7
2014-Jul-16 23:34N 57°52' E 010°50'1615.5
2014-Jul-16 22:33N 57°52' E 010°21'42224.2
2014-Jul-16 05:06N 54°42' W 000°58'59 7.8
2014-Jul-15 21:33N 55°06' E 000°36'1514.9
2014-Jul-15 20:33N 54°60' E 000°13'1614.9
2014-Jul-15 19:29N 54°54' W 000°13'1415.0
2014-Jul-15 18:33N 54°48' W 000°35'1614.8
2014-Jul-15 17:28N 54°41' W 001°01'8 2.6
2014-Jul-15 14:20N 54°36' W 001°11'0 0.0
2014-Jul-15 09:23N 54°36' W 001°11'  

Dump ship's entire track history